Theta_e
314 320 327 326 325 327 327 327 328 329 329 330 331 333 334 335 342 347 339 337 336 326 326 326 326 324 321 321 321 320 319 318 318 318 318 317 317 317 316 316 316 316 316 316 317 317 318 319 320
314 322 325 324 325 327 328 328 329 329 332 332 333 335 337 339 341 342 338 337 333 327 326 326 326 325 323 320 321 321 320 319 318 318 318 318 317 317 317 317 317 317 317 317 317 318 319 320 321
318 322 324 324 325 327 327 329 329 330 334 336 336 336 337 339 340 341 337 337 333 327 327 327 326 325 324 322 320 320 320 319 318 318 318 318 317 317 317 317 317 318 318 318 318 318 318 319 321
328 327 324 323 325 326 327 329 329 330 331 337 336 337 337 340 341 339 337 337 329 328 328 327 326 325 324 323 321 319 319 319 319 318 318 317 318 317 317 318 318 318 319 319 319 318 318 319 319
328 326 324 323 324 326 328 329 328 330 333 334 335 337 337 339 340 336 336 334 328 328 328 327 326 325 324 323 321 320 318 318 318 318 318 318 318 318 318 319 320 320 320 320 320 319 319 319 319
326 324 325 325 325 325 326 327 327 329 331 336 336 336 338 338 340 337 330 331 332 332 328 327 326 325 324 323 321 321 319 319 318 318 318 318 318 318 318 318 319 320 321 321 321 321 320 320 320
329 328 325 324 324 325 326 326 326 328 330 332 335 336 336 339 338 339 334 336 338 340 330 327 326 326 324 323 321 320 320 319 318 318 318 318 318 317 317 318 318 320 321 321 321 321 321 321 321
329 331 331 328 328 327 326 326 326 326 327 329 334 334 337 339 339 339 334 337 338 340 333 329 328 327 325 324 323 321 320 319 318 318 318 318 317 317 317 317 317 319 320 321 321 321 322 322 322
324 329 332 330 329 329 328 327 326 325 325 326 329 333 339 340 339 339 335 335 337 339 339 335 330 327 326 324 324 323 321 320 317 317 317 317 317 317 317 317 317 318 319 320 321 321 322 322 322
323 328 329 329 329 329 328 328 327 326 326 326 328 333 335 338 340 339 337 335 337 337 339 340 338 332 328 325 324 323 321 321 320 320 318 317 317 316 316 316 316 317 318 319 320 321 322 322 322
323 327 328 328 329 329 329 328 327 326 327 326 329 331 335 335 338 339 337 336 336 337 337 339 341 340 339 336 332 333 331 329 325 322 321 320 317 316 316 317 319 318 317 318 319 320 321 321 322
321 324 326 327 328 329 330 330 330 328 326 326 327 330 334 335 336 338 338 336 337 337 337 339 340 340 339 339 342 339 338 335 334 334 333 329 326 321 318 319 326 327 328 322 319 320 320 321 322
319 320 322 324 326 328 328 329 330 330 327 326 326 327 331 335 334 336 337 337 337 337 337 338 338 341 342 341 342 343 341 339 335 337 335 336 338 336 332 327 331 332 333 334 331 322 326 333 334
318 319 320 321 323 325 327 328 328 329 329 329 328 327 328 334 334 334 335 336 336 336 336 337 340 337 338 338 332 335 343 341 342 343 340 336 338 341 340 336 333 334 336 336 335 334 331 336 336
317 319 320 321 321 323 324 326 328 329 329 329 330 329 328 328 333 333 334 335 335 335 334 334 335 337 336 335 333 327 330 333 337 345 344 343 342 343 343 340 337 336 335 338 336 336 335 335 338
314 317 319 320 320 321 322 324 326 325 328 329 329 330 330 329 328 330 333 334 333 333 334 334 333 334 336 335 334 327 326 329 331 339 342 345 343 342 343 341 339 339 338 335 336 336 336 336 336
314 313 315 317 320 320 321 322 325 325 326 328 329 329 329 330 330 331 331 333 332 332 331 332 333 334 337 336 333 332 329 328 327 330 336 341 343 342 343 343 341 340 340 338 335 335 335 336 335
314 314 314 314 316 318 321 322 323 323 323 326 328 330 329 329 330 330 332 332 331 333 333 333 333 333 334 338 336 335 332 327 325 325 332 340 342 344 344 344 343 341 340 339 338 336 335 336 335
316 315 316 316 316 316 318 321 323 324 324 324 325 327 329 330 331 329 329 330 331 330 331 332 332 331 332 332 326 324 324 325 325 327 335 341 343 344 344 344 343 342 340 339 339 337 336 336 334
315 315 314 314 315 316 317 317 320 323 324 324 325 325 326 328 330 330 332 331 331 330 329 329 329 328 328 326 322 323 330 334 333 337 341 343 343 344 344 343 342 343 342 341 340 339 337 335 334
314 314 314 314 314 314 315 317 319 320 323 323 323 325 325 326 327 330 330 330 331 329 328 328 328 327 328 325 323 328 328 331 341 343 344 345 344 344 345 343 342 344 341 341 341 339 336 336 334
313 313 313 313 313 313 314 316 320 320 322 324 323 324 326 326 325 327 328 329 329 329 329 330 329 327 327 325 326 329 329 326 327 343 345 346 345 345 345 343 344 345 342 343 340 337 336 336 338
313 313 313 313 314 314 314 314 315 318 321 324 325 323 325 324 325 325 326 326 326 326 326 325 325 327 326 326 328 327 335 337 341 345 347 348 347 345 344 341 344 343 341 344 342 338 337 339 336
314 313 313 313 315 315 314 314 315 316 319 321 325 324 324 324 324 325 325 325 325 324 324 324 327 326 325 327 330 330 329 330 344 346 346 348 347 346 345 341 342 343 341 343 341 338 338 336 334
313 315 318 316 316 317 314 314 315 317 318 319 322 324 324 324 325 325 325 326 325 325 325 324 324 325 326 327 334 329 325 339 347 347 347 348 347 344 342 342 342 343 339 342 338 338 337 333 332
313 312 313 314 315 314 313 315 317 318 318 317 320 322 322 322 323 324 323 323 324 325 324 324 324 326 326 330 331 327 325 339 351 348 348 347 341 343 342 342 344 342 340 341 338 335 332 331 331
313 313 314 316 316 316 315 313 315 317 318 320 321 321 322 322 323 324 325 325 326 329 332 329 327 326 325 328 330 340 336 342 351 349 347 347 343 343 343 344 343 341 338 337 335 333 332 332 331
315 315 317 317 317 317 313 312 313 317 318 319 321 322 321 322 324 324 325 327 334 335 334 331 327 328 328 338 345 346 349 350 349 347 350 348 344 345 344 343 340 339 338 336 333 332 333 332 330
313 315 314 315 318 318 315 312 317 318 321 320 323 322 322 323 323 323 325 334 337 340 339 329 328 337 346 347 347 349 347 350 351 351 347 347 346 345 339 340 339 337 334 334 332 333 333 331 330
314 313 316 319 317 316 315 317 317 317 319 318 319 322 323 322 321 321 333 339 339 338 339 334 335 345 346 348 349 349 352 348 350 347 344 342 342 340 338 338 334 333 334 333 332 330 332 330 329
Wind_Speed
7 6 5 9 6 7 15 18 20 19 9 8 5 4 5 13 10 7 26 24 23 31 28 24 20 18 18 19 19 20 19 17 15 13 12 10 9 7 6 4 4 4 4 5 5 5 5 5 5
7 6 8 9 8 12 14 20 21 18 3 7 6 2 7 9 18 22 22 27 24 30 29 26 22 18 17 17 18 18 18 17 15 14 13 11 9 7 6 5 4 2 2 3 3 3 3 4 4
7 10 11 5 12 15 16 19 15 9 3 6 5 15 13 6 20 24 26 29 26 29 28 25 22 19 18 18 18 18 18 16 15 14 13 11 10 9 7 6 5 4 3 2 0 1 3 4 4
4 9 10 10 18 19 23 23 24 10 16 9 10 6 7 4 7 21 31 28 26 28 28 25 22 20 19 19 19 19 18 17 15 14 12 11 10 9 8 7 6 6 4 3 3 1 2 3 4
10 13 11 15 19 20 22 24 20 11 9 9 13 11 9 5 7 19 33 28 26 29 27 26 22 21 20 19 19 19 18 17 16 15 14 13 12 11 11 10 9 9 7 6 6 5 3 3 4
9 8 11 14 18 20 20 25 28 12 14 8 8 14 11 17 16 18 27 24 23 24 27 25 23 21 20 19 19 19 18 18 18 17 17 16 16 15 14 14 13 12 11 11 9 7 7 5 5
19 11 15 18 18 19 19 25 19 12 13 19 17 12 16 23 20 18 25 24 24 22 24 25 23 23 21 20 19 19 18 19 19 20 19 19 19 19 18 17 16 15 14 14 11 10 10 8 7
23 14 24 19 17 22 19 25 22 19 16 24 21 10 10 19 23 23 29 25 26 23 24 24 23 23 24 23 21 20 20 20 21 21 21 21 22 22 22 21 21 19 18 17 14 13 13 10 9
24 16 18 23 21 18 21 16 20 23 23 24 16 14 7 10 19 20 29 27 25 23 21 20 24 23 23 22 22 22 23 22 24 24 24 25 26 26 26 26 24 22 21 20 18 17 15 12 12
21 17 27 23 21 17 21 18 17 18 23 22 20 12 3 6 15 21 28 29 29 27 27 20 19 20 20 22 24 23 25 25 25 25 26 28 29 29 28 29 27 26 25 24 23 21 18 17 16
27 26 24 28 30 26 27 25 18 20 21 24 21 24 15 11 16 21 26 30 28 27 29 29 23 19 18 15 18 19 19 23 26 28 29 30 31 31 31 30 28 28 29 29 28 26 25 22 19
26 34 33 35 34 33 27 33 22 23 27 31 27 26 18 20 15 26 30 29 28 28 29 32 25 25 23 16 15 20 22 20 20 21 22 26 29 30 31 33 30 29 26 30 32 30 28 24 21
29 28 35 36 35 35 36 31 28 24 28 31 33 32 22 19 14 16 21 24 11 5 11 31 28 22 16 16 24 24 24 22 22 22 22 23 25 25 26 29 29 29 26 25 24 30 25 19 18
28 33 31 35 35 35 30 29 29 35 29 30 32 33 21 25 24 20 19 15 10 9 17 4 9 14 18 19 18 27 28 28 25 25 25 27 30 27 25 25 30 29 28 24 21 18 24 25 21
27 26 24 27 30 27 34 28 32 34 33 33 33 34 34 27 34 30 26 23 20 18 16 13 10 11 20 22 21 20 23 23 24 25 28 30 32 32 29 27 28 31 30 24 21 23 17 24 23
21 21 21 25 27 31 24 28 30 37 32 31 35 35 34 36 30 27 26 25 25 20 20 20 18 17 25 26 24 22 20 22 22 23 27 30 33 36 33 30 30 28 31 32 27 25 23 25 26
16 20 25 26 23 24 26 32 28 33 35 32 31 33 36 36 34 31 37 33 27 27 28 27 25 25 13 19 17 20 23 23 23 25 27 28 32 35 34 31 30 29 28 28 29 29 26 26 23
17 20 20 25 24 26 26 28 29 36 35 31 33 33 37 41 40 38 34 38 29 23 23 24 25 26 21 18 17 23 27 29 29 31 30 28 29 35 34 31 29 31 27 29 27 27 29 27 25
20 21 24 25 26 27 23 25 29 25 32 31 31 30 31 36 35 44 42 41 40 35 29 26 27 27 27 27 29 33 36 35 34 33 28 26 31 33 35 31 28 27 29 29 26 26 26 23 25
20 20 23 24 24 22 25 28 29 24 24 29 33 33 31 40 36 36 29 23 32 26 23 24 28 29 30 32 34 33 27 22 26 26 25 27 31 34 32 29 25 24 28 25 25 26 27 28 20
19 21 21 23 21 21 25 28 26 29 27 30 27 33 35 40 39 29 38 32 23 26 26 30 32 32 33 30 31 29 25 31 20 23 24 27 30 32 30 25 24 25 24 25 26 26 28 19 17
22 20 23 22 20 18 18 18 23 23 25 21 27 35 29 36 39 37 30 27 26 20 20 25 26 30 33 30 31 31 31 31 34 23 25 28 29 30 26 24 24 24 20 22 17 25 18 22 17
21 21 22 23 22 22 23 15 20 22 25 22 22 36 33 27 30 37 37 28 33 34 33 36 38 37 37 35 32 34 30 25 18 24 24 24 22 24 27 22 25 20 21 18 19 14 17 15 16
21 20 23 22 18 18 25 22 22 19 24 24 22 32 34 29 37 29 31 35 37 37 37 37 39 41 39 38 37 33 28 29 23 24 26 29 27 27 25 22 23 21 22 17 17 14 16 18 14
17 6 5 9 14 18 25 23 20 24 24 29 27 22 22 31 34 34 36 35 32 31 31 30 32 35 37 37 36 33 29 26 25 29 31 33 28 25 23 25 25 22 20 16 15 18 18 16 15
25 13 12 17 16 17 20 12 13 25 23 38 36 28 24 34 36 18 14 19 23 23 27 31 32 33 34 35 35 33 30 30 23 31 31 23 24 24 23 24 22 20 18 15 16 16 15 13 11
16 16 18 18 23 16 19 23 15 24 24 24 26 31 8 10 7 6 6 12 16 22 18 24 25 27 32 32 30 32 27 30 27 27 23 17 15 21 23 23 21 17 15 17 16 12 10 9 8
22 18 17 10 15 19 16 18 13 19 14 23 23 18 18 16 3 6 16 21 13 16 20 18 23 25 21 26 27 25 27 28 26 24 24 20 17 20 23 23 18 18 19 16 12 9 9 10 10
10 17 14 16 7 5 12 12 7 14 19 20 20 24 24 10 8 12 12 8 15 17 17 19 20 22 24 23 22 25 26 26 27 26 22 23 25 22 18 20 20 19 15 12 9 12 12 9 13
25 12 5 3 10 13 12 19 16 15 23 27 33 15 13 9 3 16 7 8 14 19 18 19 22 23 23 23 24 26 28 28 28 28 27 26 24 20 19 17 12 11 10 8 11 13 10 11 10
Wind_Direction
237 216 301 275 246 230 252 244 257 268 255 281 212 357 288 281 37 94 145 143 160 150 151 154 161 161 159 161 159 157 159 160 161 160 160 164 164 160 157 149 135 121 103 89 83 75 71 59 49
219 236 258 272 235 245 246 231 244 244 270 143 260 216 277 270 106 138 143 150 161 152 154 159 165 167 170 170 171 171 169 169 169 171 176 174 176 177 177 174 164 138 110 87 77 74 64 50 39
197 225 258 233 237 246 265 264 221 205 178 116 172 218 227 245 120 141 139 156 163 156 158 162 171 175 179 179 184 184 183 182 183 185 186 187 188 191 195 196 194 188 190 180 153 35 20 16 8
233 222 251 259 253 247 246 277 302 170 204 171 250 171 240 117 83 148 152 161 161 162 166 172 180 184 188 189 192 194 194 193 195 198 200 203 205 207 210 212 211 213 215 220 236 255 318 343 344
260 260 242 248 247 254 277 284 291 278 199 202 217 247 196 153 93 146 159 166 163 168 172 177 187 191 196 199 201 202 203 201 205 210 216 218 220 226 223 224 226 224 226 230 233 245 269 292 311
234 243 252 244 255 270 275 278 291 251 266 227 225 217 207 166 151 158 166 164 160 173 178 179 191 198 201 205 209 210 210 210 212 216 221 225 229 231 233 232 230 230 227 232 231 238 249 259 278
240 242 243 265 262 265 277 296 316 272 251 261 253 221 247 159 169 174 170 159 165 179 185 181 191 200 207 212 215 218 219 221 221 223 225 230 233 235 236 237 235 234 235 235 234 237 241 247 265
245 256 261 257 264 266 265 276 286 304 286 247 248 270 234 248 174 170 170 171 166 175 192 188 195 204 209 213 217 222 225 227 229 231 233 235 237 237 239 238 238 236 237 238 239 240 242 248 261
243 254 253 253 250 263 274 276 284 273 280 288 293 302 67 90 125 180 182 176 174 177 193 208 204 211 216 221 226 227 229 230 233 235 236 238 239 240 241 241 241 239 239 241 242 243 245 250 257
236 243 242 248 259 270 278 276 260 271 253 253 259 247 115 161 192 200 188 182 182 181 185 203 225 218 216 223 231 229 236 240 240 242 243 243 244 246 246 249 244 243 241 241 242 242 244 247 254
230 243 247 254 261 257 268 278 267 273 272 256 219 244 223 230 200 205 198 195 194 195 192 193 208 234 238 228 238 248 243 248 251 251 251 252 248 248 250 252 251 244 240 241 239 239 241 246 250
243 247 245 257 262 278 281 281 272 255 272 278 283 230 229 220 227 208 204 209 204 206 201 190 198 220 231 231 237 260 261 264 262 260 253 251 256 251 247 248 250 255 252 246 243 242 246 248 253
249 248 252 256 257 256 267 267 271 265 254 268 277 281 252 201 224 246 221 207 226 42 222 234 217 218 230 226 212 233 249 258 265 269 273 273 265 263 255 244 239 250 256 257 249 242 247 252 257
261 261 260 255 250 257 252 256 255 252 258 262 272 275 263 215 244 244 258 252 232 211 216 190 182 222 243 247 241 230 229 239 241 250 264 274 276 268 263 251 228 230 247 252 260 241 235 244 245
263 273 274 265 262 253 251 261 251 251 239 249 257 264 266 255 209 223 239 244 247 247 247 233 215 238 250 254 253 230 229 237 236 237 244 256 267 267 259 248 239 229 223 241 242 247 237 229 234
280 271 267 248 249 256 259 260 249 257 251 233 248 258 261 260 250 238 237 239 230 239 243 251 234 245 248 258 258 240 235 240 249 252 240 244 255 260 253 244 233 235 230 223 232 230 236 229 236
245 259 261 268 256 253 239 253 254 250 250 247 231 243 253 258 259 240 243 246 232 237 246 236 234 231 241 242 247 250 255 257 264 264 258 246 250 256 248 242 235 230 234 228 229 233 231 233 240
269 257 253 254 259 268 263 245 248 246 254 253 244 234 234 240 249 251 234 234 245 230 211 222 232 237 222 220 245 254 257 261 265 264 254 249 243 249 247 241 239 221 230 227 229 231 227 236 233
302 291 284 283 293 297 284 263 265 241 235 241 250 241 249 254 249 234 241 235 236 231 228 235 242 240 232 232 249 252 254 257 262 262 255 235 239 240 244 249 228 222 224 230 225 229 232 229 230
275 287 286 288 291 291 286 281 278 270 255 239 232 231 240 255 250 249 229 221 218 222 225 239 245 248 251 252 254 252 253 256 259 252 248 236 235 238 243 242 216 221 218 225 219 225 225 225 224
268 268 276 283 294 283 284 281 276 271 275 258 269 237 223 238 254 256 245 234 220 224 230 248 248 253 260 255 251 255 249 233 230 227 236 236 232 236 241 232 197 225 218 218 222 223 225 221 227
282 281 277 281 280 275 276 272 267 269 263 264 271 272 236 222 240 253 253 241 234 228 229 238 245 252 252 255 246 241 246 244 235 229 233 236 233 236 228 217 192 218 230 210 230 224 225 205 218
282 299 292 287 286 284 270 265 266 270 264 252 233 258 257 241 244 240 247 243 249 255 254 259 257 245 251 253 243 240 227 232 224 218 219 234 233 216 222 208 198 213 197 211 223 224 203 214 214
305 291 288 276 276 263 266 263 265 258 265 267 261 232 245 242 250 238 246 253 253 254 250 250 244 241 240 237 236 238 225 228 217 219 209 218 217 211 219 199 196 207 192 206 209 207 212 218 229
272 235 298 276 269 264 258 252 258 265 260 261 266 268 238 231 232 234 231 228 235 239 238 239 241 240 232 229 227 233 228 226 208 208 208 214 217 211 203 189 193 203 193 202 211 210 220 232 231
284 306 287 277 282 280 299 277 298 298 263 265 271 267 259 269 246 218 222 231 233 238 237 237 233 232 221 224 228 237 231 216 208 209 214 225 216 199 189 188 195 194 188 200 215 223 235 237 239
287 277 275 291 281 279 281 277 262 261 269 254 256 259 218 265 223 195 245 264 253 257 246 229 224 225 218 222 224 220 218 194 195 199 214 214 195 189 189 189 193 187 193 213 228 227 219 214 232
272 264 282 279 274 263 266 274 259 310 329 255 260 246 277 226 180 236 237 242 247 243 242 232 214 211 216 202 205 203 190 185 193 185 189 199 182 184 186 185 187 191 206 217 223 207 207 215 233
284 269 263 259 170 235 278 271 259 355 347 333 272 209 221 145 209 243 257 239 245 245 237 210 200 193 186 190 188 185 181 179 184 177 175 175 177 182 181 181 188 205 216 212 197 189 224 254 219
327 279 336 233 262 274 288 282 23 344 343 337 328 241 133 129 283 274 222 237 239 223 224 189 185 177 179 180 175 170 174 178 174 173 176 178 173 173 172 192 209 203 193 197 209 202 221 241 242